Weather History for Maxwell AFB, AL

Change the Weather History Date:

Friday, February 7, 2014

  Actual Average Record
Temperature  
Mean Temperature 40 °F -  
Max Temperature 50 °F 59 °F 75 °F (1999)
Min Temperature 29 °F 39 °F 28 °F (2000)
Degree Days  
Heating Degree Days 26    
Moisture  
Dew Point 29 °F    
Average Humidity 70    
Maximum Humidity 88    
Minimum Humidity 42    
Precipitation  
Precipitation 0.00 in - - ()
Sea Level Pressure  
Sea Level Pressure 30.31 in    
Wind  
Wind Speed 5 mph (WNW)    
Max Wind Speed 8 mph    
Max Gust Speed -    
Visibility 10 miles    
Events      
Averages and records for this station are not official NWS values.
T = Trace of Precipitation, MM = Missing Value Source: NWS Daily Summary

Daily Weather History Graph

Daily Weather History Graph

Search for Another Location

Airport:

Trip Planner

Search our weather history database for the weather conditions in past years. The results will help you decide how hot, cold, wet, or windy it might be!

Date:

Astronomy

Feb. 07, 2014 Rise Set
Actual Time 6:35 AM CST 5:24 PM CST
Civil Twilight 6:09 AM CST 5:49 PM CST
Nautical Twilight 5:40 AM CST 6:18 PM CST
Astronomical Twilight 5:11 AM CST 6:47 PM CST
Moon 11:38 AM CST (2/7) 12:47 AM CST (2/7)
Length of Visible Light 11h 40m
Length of Day
10h 49m
First Quarter, 59% of the Moon is Illuminated
Feb 7
First Quarter
Feb 14
Full
Feb 22
Last Quarter
Mar 1
New
Mar 8
First Quarter

Hourly Weather History & Observations

Time (CST) Temp. Windchill Dew Point Humidity Pressure Visibility Wind Dir Wind Speed Gust Speed Precip Events Conditions
12:58 AM 30.0 °F 25.2 °F 26.6 °F 87% 30.35 in 10.0 mi WSW 4.6 mph - N/A   Clear
1:58 AM 30.9 °F 25.2 °F 27.0 °F 85% 30.33 in 10.0 mi WNW 5.8 mph - N/A   Clear
2:58 AM 30.6 °F 24.7 °F 26.8 °F 86% 30.32 in 10.0 mi NW 5.8 mph - N/A   Clear
3:58 AM 30.2 °F 22.6 °F 27.1 °F 88% 30.32 in 10.0 mi WNW 8.1 mph - N/A   Clear
4:58 AM 29.3 °F 24.3 °F 26.2 °F 88% 30.34 in 10.0 mi WNW 4.6 mph - N/A   Clear
5:58 AM 29.3 °F 24.3 °F 26.2 °F 88% 30.35 in 10.0 mi West 4.6 mph - N/A   Clear
6:58 AM 29.1 °F 23.0 °F 26.1 °F 88% 30.38 in 10.0 mi WNW 5.8 mph - N/A   Clear
7:58 AM 32.2 °F 25.8 °F 27.1 °F 82% 30.38 in 10.0 mi NW 6.9 mph - N/A   Clear
8:58 AM 36.0 °F 30.3 °F 29.1 °F 76% 30.38 in 10.0 mi NNW 6.9 mph - N/A   Clear
9:58 AM 39.4 °F 35.2 °F 28.4 °F 65% 30.40 in 10.0 mi NNW 5.8 mph - N/A   Clear
10:58 AM 43.0 °F 41.3 °F 28.9 °F 58% 30.38 in 10.0 mi WSW 3.5 mph - N/A   Clear
11:58 AM 45.1 °F 42.0 °F 28.6 °F 52% 30.35 in 10.0 mi NNW 5.8 mph - N/A   Clear
12:58 PM 47.8 °F - 27.9 °F 46% 30.31 in 10.0 mi Variable 5.8 mph - N/A   Clear
1:58 PM 48.7 °F - 28.0 °F 45% 30.28 in 10.0 mi NW 8.1 mph - N/A   Clear
2:58 PM 50.2 °F - 28.2 °F 43% 30.26 in 10.0 mi NW 4.6 mph - N/A   Clear
3:58 PM 50.4 °F - 28.0 °F 42% 30.26 in 10.0 mi NW 4.6 mph - N/A   Clear
4:58 PM 48.4 °F - 30.6 °F 50% 30.26 in 10.0 mi West 4.6 mph - N/A   Clear
5:58 PM 44.4 °F 42.9 °F 33.3 °F 65% 30.27 in 10.0 mi West 3.5 mph - N/A   Clear
6:58 PM 40.1 °F - 32.4 °F 74% 30.27 in 10.0 mi North 1.2 mph - N/A   Clear
7:58 PM 39.4 °F - 31.3 °F 73% 30.27 in 10.0 mi Calm Calm - N/A   Scattered Clouds
8:58 PM 37.9 °F - 34.0 °F 86% 30.27 in 10.0 mi SW 2.3 mph - N/A   Overcast
9:58 PM 40.3 °F - 34.5 °F 80% 30.27 in 10.0 mi West 2.3 mph - N/A   Overcast
10:58 PM 42.1 °F 39.2 °F 32.0 °F 67% 30.26 in 10.0 mi NW 4.6 mph - N/A   Overcast
11:58 PM 42.3 °F 39.4 °F 31.8 °F 67% 30.24 in 10.0 mi NW 4.6 mph - N/A   Overcast